Southport Middle School FL US WEATHERSTEM current weather conditions

sailwx.info

Wind from 312 at 2 knots gusting 6

Air temperature 17.3° C
Dewpoint 16.7° C

Last reported at 2020-Jan-25 13:00 UTC.
Time now 2020-Jan-25 13:25 UTC

Location: N 27°16' W 080°18'.
View on Google Maps.

See reports from other nearby stations

  
Tides and Currents Weather Stations Pressure Air Temp Water Temp Dewpoint Dewpoint Depression Visibility Wind Speed Wind Dir Waves Ship Positions
date/time (UTC)wind fromknots sea level pressurealtimeterstation pressurevisibilityair tempwater tempwave heightnotes
2020-Jan-25 13:00 312 2 gusting 6 17.3
2020-Jan-25 12:50 304 3 gusting 6 17.3
2020-Jan-25 12:40 303 1 gusting 6 17.2
2020-Jan-25 12:30 288 6 gusting 7 17.2
2020-Jan-25 12:20 290 2 gusting 4 17.1
2020-Jan-25 12:10 17.1
2020-Jan-25 12:00 259 0 gusting 5 17.1
2020-Jan-25 11:50 17.1
2020-Jan-25 11:40 17.2
2020-Jan-25 11:30 17.3
2020-Jan-25 11:20 248 0 gusting 3 17.4
2020-Jan-25 11:10 261 0 gusting 2 17.5
2020-Jan-25 11:00 263 0 gusting 2 17.6
2020-Jan-25 10:50 259 1 gusting 2 17.7
2020-Jan-25 10:40 254 1 gusting 2 17.8
2020-Jan-25 10:30 216 1 gusting 4 17.8
2020-Jan-25 10:10 235 1 gusting 3 17.9
2020-Jan-25 10:00 224 0 gusting 3 18.0
2020-Jan-25 09:50 233 1 gusting 2 18.1
2020-Jan-25 09:40 223 1 gusting 2 18.2
2020-Jan-25 09:30 223 0 gusting 2 18.3
2020-Jan-25 09:20 247 0 gusting 4 18.4
2020-Jan-25 09:10 216 1 gusting 3 18.6
2020-Jan-25 09:00 225 2 gusting 3 18.7
2020-Jan-25 08:50 219 1 gusting 3 18.7
2020-Jan-25 08:40 251 1 gusting 6 18.7
2020-Jan-25 08:30 225 0 gusting 4 18.8
2020-Jan-25 08:20 231 3 gusting 4 18.8
2020-Jan-25 08:10 238 3 gusting 5 18.8
2020-Jan-25 08:00 236 2 gusting 4 18.8
2020-Jan-25 07:50 235 3 gusting 4 18.8
2020-Jan-25 07:40 239 3 gusting 5 18.8
2020-Jan-25 07:30 224 2 gusting 5 18.7
2020-Jan-25 07:20 220 3 gusting 4 18.7
2020-Jan-25 07:10 238 2 gusting 4 18.7
2020-Jan-25 07:00 219 2 gusting 4 18.7
2020-Jan-25 06:40 216 1 gusting 3 18.8
2020-Jan-25 06:30 188 1 gusting 4 18.9
2020-Jan-25 06:20 209 0 gusting 4 18.9
2020-Jan-25 06:10 230 2 gusting 4 19.0
2020-Jan-25 06:00 202 1 gusting 4 19.1
2020-Jan-25 05:40 218 1 gusting 5 19.1
2020-Jan-25 05:20 198 1 gusting 5 19.2
2020-Jan-25 05:10 215 2 gusting 5 19.1
2020-Jan-25 05:00 221 1 gusting 6 19.1
2020-Jan-25 04:40 211 2 gusting 5 18.8
2020-Jan-25 04:20 206 1 gusting 2 18.4
2020-Jan-25 04:10 18.3
2020-Jan-25 04:00 18.3
2020-Jan-25 03:40 194 0 gusting 2 18.0
2020-Jan-25 03:20 17.6
2020-Jan-25 03:10 17.6
2020-Jan-25 03:00 17.7
2020-Jan-25 02:40 17.8
2020-Jan-25 02:20 18.1
2020-Jan-25 02:10 18.1
2020-Jan-25 02:00 18.2
2020-Jan-25 01:40 18.6
2020-Jan-25 01:20 18.8
2020-Jan-25 01:10 18.9
2020-Jan-25 01:00 19.1
2020-Jan-25 00:40 19.4
2020-Jan-25 00:20 19.8
2020-Jan-25 00:10 20.1
2020-Jan-25 00:00 20.3
2020-Jan-24 23:50 20.5
2020-Jan-24 23:40 20.8
2020-Jan-24 23:20 21.2
2020-Jan-24 23:10 21.6
2020-Jan-24 23:00 21.8
2020-Jan-24 22:50 22.4
2020-Jan-24 22:40 22.8
2020-Jan-24 22:20 140 1 gusting 2 23.3
2020-Jan-24 22:10 23.4
2020-Jan-24 22:00 124 0 gusting 1 23.6
2020-Jan-24 21:50 126 0 gusting 2 23.7
2020-Jan-24 21:40 165 0 gusting 3 23.7
2020-Jan-24 21:20 163 0 gusting 3 23.7
2020-Jan-24 21:10 117 2 gusting 2 23.6
2020-Jan-24 21:00 169 3 gusting 3 23.8
2020-Jan-24 20:50 137 1 gusting 4 23.7
2020-Jan-24 20:20 102 2 gusting 6 23.5
2020-Jan-24 20:10 163 0 gusting 3 23.7
2020-Jan-24 20:00 146 0 gusting 4 23.8
2020-Jan-24 19:50 140 0 gusting 4 23.9
2020-Jan-24 19:40 140 0 gusting 4 23.9
2020-Jan-24 19:20 157 2 gusting 4 23.9
2020-Jan-24 19:00 148 0 gusting 5 23.5
2020-Jan-24 18:40 073 1 gusting 6 22.9
2020-Jan-24 18:20 067 7 gusting 7 22.3
2020-Jan-24 18:10 091 3 gusting 6 21.8
2020-Jan-24 18:00 086 4 gusting 4 21.7
2020-Jan-24 17:40 21.1
2020-Jan-24 17:20 132 6 gusting 7 20.8
2020-Jan-24 17:10 098 0 gusting 7 20.4
2020-Jan-24 17:00 030 1 gusting 5 20.2
2020-Jan-24 16:40 106 0 gusting 6 20.0
2020-Jan-24 16:20 068 1 gusting 3 20.1
2020-Jan-24 16:10 108 2 gusting 3 19.8
2020-Jan-24 16:00 122 1 gusting 5 19.4
2020-Jan-24 15:40 182 0 gusting 6 19.1
2020-Jan-24 15:20 159 0 gusting 4 19.3
2020-Jan-24 15:10 154 3 gusting 5 19.1
2020-Jan-24 15:00 18.9
2020-Jan-24 14:40 206 0 gusting 2 18.7
2020-Jan-24 14:20 190 0 gusting 2 18.4
2020-Jan-24 14:10 18.2
2020-Jan-24 14:00 190 0 gusting 1 18.1
2020-Jan-24 13:40 190 0 gusting 2 18.1
2020-Jan-24 13:20 265 1 gusting 3 18.1
2020-Jan-24 13:00 232 0 gusting 2 17.9
2020-Jan-24 12:40 232 0 gusting 2 17.8
2020-Jan-24 12:20 236 0 gusting 3 17.7
2020-Jan-24 12:10 265 0 gusting 2 17.7
2020-Jan-24 12:00 250 1 gusting 1 17.7
2020-Jan-24 11:50 250 0 gusting 1 17.7
2020-Jan-24 11:40 17.7
2020-Jan-24 11:20 17.7
2020-Jan-24 11:10 17.7
2020-Jan-24 11:00 247 0 gusting 2 17.7
2020-Jan-24 10:50 241 0 gusting 5 17.7
2020-Jan-24 10:40 17.7
2020-Jan-24 10:20 241 1 gusting 2 17.7
2020-Jan-24 10:10 17.7
2020-Jan-24 10:00 261 0 gusting 1 17.7
2020-Jan-24 09:50 17.7
2020-Jan-24 09:40 17.7
2020-Jan-24 09:20 254 0 gusting 3 17.7
2020-Jan-24 09:10 267 0 gusting 2 17.7
2020-Jan-24 09:00 17.7
2020-Jan-24 08:50 17.7
2020-Jan-24 08:40 269 0 gusting 2 17.7
2020-Jan-24 08:20 17.7
2020-Jan-24 08:10 17.7
2020-Jan-24 08:00 17.7
2020-Jan-24 07:50 268 0 gusting 2 17.6
2020-Jan-24 07:40 234 0 gusting 2 17.6
2020-Jan-24 07:20 229 0 gusting 2 17.6
2020-Jan-24 07:10 261 0 gusting 2 17.6
2020-Jan-24 07:00 009 0 gusting 1 17.7
2020-Jan-24 06:50 009 0 gusting 0 17.8
2020-Jan-24 06:40 17.8
2020-Jan-24 06:20 17.9
2020-Jan-24 06:10 18.1
2020-Jan-24 06:00 18.1
2020-Jan-24 05:50 18.2
2020-Jan-24 05:40 009 0 gusting 1 18.3
2020-Jan-24 05:20 009 0 gusting 1 18.3
2020-Jan-24 05:10 009 0 gusting 1 18.3
2020-Jan-24 05:00 18.3
2020-Jan-24 04:50 005 2 gusting 3 18.3
2020-Jan-24 04:40 18.3
2020-Jan-24 04:20 360 0 gusting 3 18.3
2020-Jan-24 04:10 005 0 gusting 4 18.3
2020-Jan-24 04:00 005 1 gusting 3 18.3
2020-Jan-24 03:50 011 0 gusting 3 18.3
2020-Jan-24 03:40 024 0 gusting 2 18.3
2020-Jan-24 03:20 026 0 gusting 1 18.3
2020-Jan-24 03:10 18.3
2020-Jan-24 03:00 18.3
2020-Jan-24 02:50 026 0 gusting 2 18.4
2020-Jan-24 02:40 026 1 gusting 3 18.4
2020-Jan-24 02:20 123 0 gusting 1 18.4
2020-Jan-24 02:10 18.5
2020-Jan-24 02:00 18.6
2020-Jan-24 01:50 18.7
2020-Jan-24 01:40 125 0 gusting 0 18.7
2020-Jan-24 01:20 18.6
2020-Jan-24 01:10 067 0 gusting 1 18.5
2020-Jan-24 01:00 18.4
2020-Jan-24 00:50 069 1 gusting 2 18.4
2020-Jan-24 00:40 18.5
2020-Jan-24 00:20 083 0 gusting 1 18.6
2020-Jan-24 00:10 083 0 gusting 2 18.6
2020-Jan-24 00:00 087 0 gusting 2 18.7
2020-Jan-23 23:50 108 1 gusting 3 18.8
2020-Jan-23 23:20 103 2 gusting 4 19.2
2020-Jan-23 23:10 069 0 gusting 5 19.3
2020-Jan-23 23:00 083 0 gusting 4 19.4
2020-Jan-23 22:40 19.4
2020-Jan-23 22:20 066 0 gusting 3 19.4
2020-Jan-23 22:10 131 0 gusting 2 19.7
2020-Jan-23 22:00 036 1 gusting 2 19.7
2020-Jan-23 21:50 19.6
2020-Jan-23 21:40 19.7
2020-Jan-23 21:20 19.6
2020-Jan-23 21:10 098 0 gusting 2 19.6
2020-Jan-23 21:00 104 1 gusting 3 19.6
2020-Jan-23 20:40 127 3 gusting 8 21.3
2020-Jan-23 20:20 033 3 gusting 8 23.0
2020-Jan-23 20:10 113 0 gusting 7 22.7
2020-Jan-23 20:00 103 0 gusting 5 23.0
2020-Jan-23 19:40 063 3 gusting 5 24.2
2020-Jan-23 19:20 173 2 gusting 7 23.7
2020-Jan-23 19:10 135 3 gusting 5 22.9
2020-Jan-23 19:00 084 0 gusting 6 22.4
2020-Jan-23 18:50 061 2 gusting 6 22.5
2020-Jan-23 18:40 23.0
2020-Jan-23 18:20 117 1 gusting 7 24.2
2020-Jan-23 18:10 123 4 gusting 8 24.2
2020-Jan-23 18:00 162 4 gusting 6 23.4
2020-Jan-23 17:50 005 1 gusting 6 21.9
2020-Jan-23 17:40 052 2 gusting 5 21.6
2020-Jan-23 17:30 100 10 gusting 10 20.6
2020-Jan-23 17:10 100 11 gusting 11 21.1
2020-Jan-23 15:40 036 1 gusting 6 19.9
2020-Jan-23 15:30 044 5 gusting 9 19.3
2020-Jan-23 15:20 033 2 gusting 10 18.9
2020-Jan-23 15:00 271 1 gusting 3 17.0
2020-Jan-23 14:40 271 1 gusting 3 16.0
2020-Jan-23 14:30 15.4
2020-Jan-23 13:50 296 0 gusting 3 13.5
2020-Jan-23 13:40 13.3
2020-Jan-23 13:30 329 1 gusting 3 13.2
2020-Jan-23 13:20 13.0
2020-Jan-23 13:10 316 2 gusting 2 12.7
2020-Jan-23 13:00 321 0 gusting 3 12.4